This is the latest recevied weather packets stored in our database for station/object N5MDT. If no packets are shown the sender has not sent any weather packets the latest 1 day(s).
| Time | Temp. | Humidity | Pressure | Rain* | Wind** | Luminosity | Snow |
|---|---|---|---|---|---|---|---|
| 1778004510 | 27.78° C | 77% | 1010 hPa | 0 mm | 0.89 m/s, 181° | - | - |
| 1778003910 | 27.22° C | 77% | 1010.1 hPa | 0 mm | 0.45 m/s, 201° | - | - |
| 1778003310 | 27.22° C | 77% | 1010.1 hPa | 0 mm | 0.45 m/s, 144° | - | - |
| 1778002710 | 27.22° C | 77% | 1010.1 hPa | 0 mm | 1.79 m/s, 236° | - | - |
| 1778002119 | 27.22° C | 79% | 1010.1 hPa | 0 mm | 0.45 m/s, 163° | - | - |
| 1778001510 | 26.67° C | 79% | 1010 hPa | 0 mm | 0.45 m/s, 101° | - | - |
| 1778000910 | 26.67° C | 80% | 1010.1 hPa | 0 mm | 0.89 m/s, 202° | - | - |
| 1778000310 | 26.11° C | 80% | 1010.2 hPa | 0 mm | 0 m/s | - | - |
| 1777999710 | 26.11° C | 80% | 1010.2 hPa | 0 mm | 0.89 m/s, 228° | - | - |
| 1777999109 | 26.11° C | 80% | 1010.1 hPa | 0 mm | 0.45 m/s, 236° | - | - |
| 1777998509 | 26.11° C | 81% | 1010.3 hPa | 0 mm | 0.89 m/s, 123° | - | - |
| 1777997909 | 25.56° C | 82% | 1010.3 hPa | 0 mm | 0 m/s | - | - |
| 1777997309 | 25.56° C | 82% | 1010.3 hPa | 0 mm | 0 m/s | - | - |
| 1777996709 | 25° C | 82% | 1010.3 hPa | 0 mm | 0 m/s | - | - |
| 1777996109 | 25° C | 82% | 1010.3 hPa | 0 mm | 0.45 m/s, 254° | - | - |
| 1777995509 | 25° C | 82% | 1010.2 hPa | 0 mm | 0.45 m/s, 196° | - | - |
| 1777994909 | 25° C | 83% | 1010.1 hPa | 0 mm | 0.45 m/s, 155° | - | - |
| 1777994308 | 24.44° C | 83% | 1010.1 hPa | 0 mm | 0.89 m/s, 162° | - | - |
| 1777993708 | 24.44° C | 84% | 1010.2 hPa | 0 mm | 0 m/s | - | - |
| 1777993108 | 24.44° C | 85% | 1010.2 hPa | 0 mm | 0.89 m/s, 203° | - | - |
| 1777992509 | 23.89° C | 85% | 1010.2 hPa | 0 mm | 0.45 m/s, 120° | - | - |
| 1777991908 | 23.89° C | 85% | 1010.2 hPa | 0 mm | 0.45 m/s, 255° | - | - |
| 1777991308 | 23.89° C | 85% | 1010.2 hPa | 0 mm | 0 m/s | - | - |
| 1777990708 | 23.89° C | 85% | 1010.2 hPa | 0 mm | 0 m/s | - | - |
| 1777990108 | 23.33° C | 86% | 1010.1 hPa | 0 mm | 0 m/s | - | - |
* Rain latest hour (hover to see other rain measurements)
** Current wind speed in m/s (hover to see current wind gust speed)